CW9854 Weather Reports


Display with metric or nautical units.
time (UTC)temp
F
wind
direction
speed
MPH
gust
MPH
rain 1hr
in
rain 24hr
in
rain mn
in
humidity
%
barometer
mb
20260904145503 68 177 1.0 3.0 0.00 0.22 0.00 92 1015.3
20260904145217 68 170 0.0 3.0 0.00 0.22 0.00 92 1015.3
20260904144503 68 42 0.0 1.0 0.00 0.22 0.00 93 1015.2
20260904144217 68 42 0.0 1.0 0.00 0.22 0.00 93 1015.1
20260904143503 68 42 0.0 1.0 0.00 0.22 0.00 94 1015.1
20260904143003 67 39 0.0 1.0 0.00 0.22 0.00 94 1015.1
20260904142503 67 294 0.0 1.0 0.00 0.22 0.00 94 1015.1
20260904142217 67 258 0.0 1.0 0.00 0.22 0.00 94 1015.1
20260904141503 67 224 0.0 1.0 0.00 0.22 0.00 95 1015.1
20260904141003 67 224 0.0 1.0 0.00 0.22 0.00 96 1015.1
20260904140503 67 224 0.0 1.0 0.00 0.22 0.00 96 1015.1
20260904140003 67 0 0.0 0.0 0.00 0.22 0.00 96 1015.1
20260904135718 67 0 0.0 0.0 0.00 0.22 0.00 96 1015.1
20260904135003 66 0 0.0 0.0 0.00 0.22 0.00 95 1015.2
20260904134717 66 0 0.0 0.0 0.00 0.22 0.00 95 1015.4
20260904134003 66 0 0.0 0.0 0.00 0.22 0.00 95 1015.3
20260904133503 66 0 0.0 0.0 0.00 0.22 0.00 96 1015.3
20260904133003 66 0 0.0 0.0 0.00 0.22 0.00 96 1015.3
20260904132503 66 0 0.0 0.0 0.00 0.22 0.00 96 1015.5
20260904132003 66 0 0.0 0.0 0.00 0.22 0.00 96 1015.5
20260904131503 66 0 0.0 0.0 0.00 0.22 0.00 96 1015.5
20260904131003 66 0 0.0 0.0 0.00 0.22 0.00 96 1015.5
20260904130503 66 0 0.0 0.0 0.00 0.22 0.00 97 1015.6
20260904130003 66 0 0.0 0.0 0.00 0.22 0.00 97 1015.5
20260904125503 66 0 0.0 0.0 0.00 0.22 0.00 97 1015.4
20260904125003 65 0 0.0 0.0 0.00 0.22 0.00 97 1015.4
20260904124503 65 0 0.0 0.0 0.00 0.22 0.00 97 1015.4
20260904124003 65 0 0.0 0.0 0.00 0.22 0.00 97 1015.6
20260904123503 65 0 0.0 0.0 0.00 0.22 0.00 97 1015.7
20260904123003 64 0 0.0 0.0 0.00 0.22 0.00 97 1015.4
20260904122717 64 0 0.0 0.0 0.00 0.22 0.00 97 1015.4
20260904122003 64 0 0.0 0.0 0.00 0.22 0.00 96 1015.3
20260904121503 64 0 0.0 0.0 0.00 0.22 0.00 96 1015.3
20260904121003 63 0 0.0 0.0 0.00 0.22 0.00 96 1015.2
20260904120503 63 0 0.0 0.0 0.00 0.22 0.00 96 1015.2
20260904120003 63 0 0.0 0.0 0.00 0.22 0.00 96 1015.3
20260904115503 63 0 0.0 0.0 0.00 0.22 0.00 96 1015.3
20260904115003 63 0 0.0 0.0 0.00 0.22 0.00 95 1015.2
20260904114717 63 0 0.0 0.0 0.00 0.22 0.00 95 1015.1
20260904114003 63 0 0.0 0.0 0.00 0.22 0.00 95 1015.1
20260904113717 63 0 0.0 0.0 0.00 0.22 0.00 95 1015.1
20260904113003 63 0 0.0 0.0 0.00 0.22 0.00 95 1015.1
20260904112503 63 0 0.0 0.0 0.00 0.22 0.00 95 1014.9
20260904112217 63 0 0.0 0.0 0.00 0.22 0.00 95 1015.0
20260904111503 63 0 0.0 0.0 0.00 0.22 0.00 95 1014.8
20260904111003 63 0 0.0 0.0 0.00 0.22 0.00 95 1015.0
20260904110503 63 0 0.0 0.0 0.00 0.22 0.00 95 1014.7
20260904110003 63 0 0.0 0.0 0.00 0.22 0.00 95 1014.8
20260904105503 63 0 0.0 0.0 0.00 0.22 0.00 95 1014.7
20260904105217 63 0 0.0 0.0 0.00 0.22 0.00 95 1014.6
20260904104503 63 0 0.0 0.0 0.00 0.22 0.00 95 1014.6
20260904104003 63 0 0.0 0.0 0.00 0.22 0.00 95 1014.6
20260904103503 64 0 0.0 0.0 0.00 0.22 0.00 95 1014.6
20260904103003 64 0 0.0 0.0 0.00 0.22 0.00 95 1014.7
20260904102503 64 0 0.0 0.0 0.00 0.22 0.00 95 1014.6
20260904102003 64 0 0.0 0.0 0.00 0.22 0.00 95 1014.7
20260904101718 64 0 0.0 0.0 0.00 0.22 0.00 95 1014.7
20260904101003 64 0 0.0 0.0 0.00 0.22 0.00 95 1014.7
20260904100508 64 0 0.0 0.0 0.00 0.22 0.00 95 1014.6
20260904100003 64 0 0.0 0.0 0.00 0.22 0.00 95 1014.6
20260904095503 64 0 0.0 0.0 0.00 0.22 0.00 95 1014.6
20260904095003 65 0 0.0 0.0 0.00 0.22 0.00 95 1014.5
20260904094718 65 0 0.0 0.0 0.00 0.22 0.00 95 1014.5
20260904094217 65 0 0.0 0.0 0.00 0.22 0.00 95 1014.4
20260904093503 65 0 0.0 0.0 0.00 0.22 0.00 95 1014.4
20260904093003 65 0 0.0 0.0 0.00 0.22 0.00 95 1014.5
20260904092503 65 0 0.0 0.0 0.00 0.22 0.00 95 1014.5
20260904092003 65 0 0.0 0.0 0.00 0.22 0.00 95 1014.5
20260904091503 65 0 0.0 0.0 0.00 0.22 0.00 95 1014.5
20260904091003 65 0 0.0 0.0 0.00 0.22 0.00 95 1014.3
20260904090503 65 0 0.0 0.0 0.00 0.22 0.00 95 1014.3
20260904090003 65 0 0.0 0.0 0.00 0.22 0.00 95 1014.3
20260904085503 65 0 0.0 0.0 0.00 0.22 0.00 95 1014.3
20260904085003 65 0 0.0 0.0 0.00 0.22 0.00 95 1014.3
20260904084717 65 0 0.0 0.0 0.00 0.22 0.00 95 1014.3
20260904084216 65 0 0.0 0.0 0.00 0.22 0.00 95 1014.4
20260904083503 65 0 0.0 0.0 0.00 0.22 0.00 95 1014.3
20260904083003 65 0 0.0 0.0 0.00 0.22 0.00 95 1014.2
20260904082503 65 0 0.0 0.0 0.00 0.22 0.00 95 1014.2
20260904082216 65 0 0.0 0.0 0.00 0.22 0.00 95 1014.2
20260904081504 65 0 0.0 0.0 0.00 0.22 0.00 95 1014.1
20260904081003 65 0 0.0 0.0 0.00 0.22 0.00 95 1014.1
20260904080503 65 0 0.0 0.0 0.00 0.22 0.00 95 1014.1
20260904080003 65 0 0.0 0.0 0.00 0.22 0.00 95 1014.0
20260904075503 65 0 0.0 0.0 0.00 0.22 0.00 94 1014.1
20260904075003 66 0 0.0 0.0 0.00 0.22 0.00 94 1013.9
20260904074503 66 0 0.0 0.0 0.00 0.22 0.00 95 1013.8
20260904074003 66 0 0.0 0.0 0.00 0.22 0.00 95 1013.8
20260904073503 66 0 0.0 0.0 0.00 0.22 0.00 95 1013.7
20260904073003 66 0 0.0 0.0 0.00 0.22 0.00 95 1013.8
20260904072503 66 0 0.0 0.0 0.00 0.22 0.00 95 1013.9
20260904072003 66 0 0.0 0.0 0.00 0.22 0.00 95 1013.9
20260904071503 66 0 0.0 0.0 0.00 0.22 0.00 95 1013.8
20260904071003 66 0 0.0 0.0 0.00 0.22 0.00 95 1013.8
20260904070503 66 0 0.0 0.0 0.00 0.22 0.00 95 1013.8
20260904070003 67 0 0.0 0.0 0.00 0.22 0.00 95 1013.8
20260904065503 67 0 0.0 0.0 0.00 0.22 0.00 95 1013.8
20260904065003 67 0 0.0 0.0 0.00 0.22 0.00 95 1013.8
20260904064503 67 0 0.0 0.0 0.00 0.22 0.00 95 1013.8
20260904064003 67 0 0.0 0.0 0.00 0.22 0.00 95 1013.7
20260904063717 67 0 0.0 0.0 0.00 0.22 0.00 95 1013.7
20260904063003 67 0 0.0 0.0 0.00 0.22 0.00 95 1013.6
20260904062717 67 0 0.0 0.0 0.00 0.22 0.00 95 1013.6
20260904062003 67 0 0.0 0.0 0.00 0.22 0.00 95 1013.6
20260904061503 67 0 0.0 0.0 0.00 0.22 0.00 95 1013.5
20260904061003 68 0 0.0 0.0 0.00 0.22 0.00 95 1013.6
20260904060503 68 0 0.0 0.0 0.00 0.22 0.00 95 1013.7
20260904060003 68 0 0.0 0.0 0.00 0.22 0.00 95 1013.8
20260904055503 68 0 0.0 0.0 0.00 0.22 0.00 95 1013.8
20260904055217 68 0 0.0 0.0 0.00 0.22 0.00 95 1013.8
20260904054716 68 0 0.0 0.0 0.00 0.22 0.00 95 1013.9
20260904054003 68 0 0.0 0.0 0.00 0.22 0.00 95 1014.1
20260904053503 68 0 0.0 0.0 0.00 0.22 0.00 95 1014.1
20260904053217 68 0 0.0 0.0 0.00 0.22 0.00 95 1014.1
20260904052503 68 0 0.0 0.0 0.00 0.22 0.00 95 1014.1
20260904052003 68 0 0.0 0.0 0.00 0.22 0.00 95 1014.1
20260904051718 68 0 0.0 0.0 0.00 0.22 0.00 95 1014.2
20260904051003 68 0 0.0 0.0 0.00 0.22 0.00 95 1014.3
20260904050503 68 0 0.0 0.0 0.00 0.22 0.00 95 1014.3
20260904050003 69 0 0.0 0.0 0.00 0.22 0.00 95 1014.2
20260904045718 69 0 0.0 0.0 0.00 0.22 0.00 95 1014.2
20260904045003 69 0 0.0 0.0 0.00 0.22 0.00 95 1014.2
20260904044503 69 0 0.0 0.0 0.00 0.22 0.00 95 1014.2
20260904044003 69 0 0.0 0.0 0.00 0.22 0.00 95 1014.3
20260904043718 69 0 0.0 0.0 0.00 0.22 0.00 95 1014.3
20260904043003 69 0 0.0 0.0 0.00 0.22 0.00 95 1014.3
20260904042503 69 0 0.0 0.0 0.00 0.22 0.00 95 1014.2
20260904042003 69 0 0.0 0.0 0.00 0.22 0.00 95 1014.3
20260904041503 69 0 0.0 0.0 0.00 0.22 0.00 95 1014.3
20260904041217 69 0 0.0 0.0 0.00 0.22 0.00 95 1014.3
20260904040503 69 0 0.0 0.0 0.00 0.22 0.00 95 1014.3
20260904040004 69 0 0.0 0.0 0.00 0.22 0.00 95 1014.2
20260904035503 69 0 0.0 0.0 0.00 0.22 0.22 95 1014.2
20260904035003 69 0 0.0 0.0 0.00 0.22 0.22 95 1014.1
20260904034503 69 0 0.0 0.0 0.00 0.22 0.22 95 1014.0
20260904034003 69 0 0.0 0.0 0.00 0.22 0.22 95 1013.9
20260904033503 69 0 0.0 0.0 0.00 0.22 0.22 95 1014.1
20260904033003 69 0 0.0 0.0 0.00 0.22 0.22 95 1013.9
20260904032503 69 0 0.0 0.0 0.00 0.22 0.22 95 1014.0
20260904032003 69 0 0.0 0.0 0.00 0.22 0.22 95 1013.7
20260904031503 69 0 0.0 0.0 0.00 0.22 0.22 95 1013.7
20260904031003 69 0 0.0 0.0 0.00 0.22 0.22 95 1013.7
20260904030503 69 0 0.0 0.0 0.00 0.22 0.22 95 1013.5
20260904030003 69 0 0.0 0.0 0.00 0.22 0.22 95 1013.5
20260904025503 69 0 0.0 0.0 0.00 0.22 0.22 95 1013.4
20260904025003 69 0 0.0 0.0 0.00 0.22 0.22 95 1013.4
20260904024503 69 0 0.0 0.0 0.00 0.22 0.22 95 1013.4
20260904024003 69 0 0.0 0.0 0.00 0.22 0.22 95 1013.4
20260904023503 69 0 0.0 0.0 0.00 0.22 0.22 94 1013.4
20260904023003 69 0 0.0 0.0 0.00 0.22 0.22 94 1013.5
20260904022503 69 0 0.0 0.0 0.00 0.22 0.22 94 1013.5
20260904022003 69 0 0.0 0.0 0.00 0.22 0.22 95 1013.5
20260904021503 69 0 0.0 0.0 0.00 0.22 0.22 95 1013.5
20260904021003 69 0 0.0 0.0 0.00 0.22 0.22 94 1013.6
20260904020503 70 0 0.0 0.0 0.00 0.22 0.22 94 1013.6
20260904020003 70 0 0.0 0.0 0.00 0.22 0.22 94 1013.6
20260904015503 70 0 0.0 0.0 0.00 0.22 0.22 94 1013.5
20260904015003 70 0 0.0 0.0 0.01 0.22 0.22 94 1013.6
20260904014717 70 0 0.0 0.0 0.01 0.22 0.22 94 1013.5
20260904014003 70 0 0.0 0.0 0.01 0.22 0.22 94 1013.3
20260904013717 70 0 0.0 0.0 0.02 0.23 0.22 94 1013.4
20260904013003 70 0 0.0 0.0 0.02 0.32 0.22 94 1013.4
20260904012503 70 0 0.0 0.0 0.02 0.42 0.22 94 1013.4
20260904012003 70 0 0.0 0.0 0.02 0.48 0.22 94 1013.4
20260904011503 71 0 0.0 0.0 0.02 0.48 0.22 94 1013.2
20260904011003 71 0 0.0 0.0 0.02 0.48 0.22 94 1013.1
20260904010503 71 0 0.0 0.0 0.02 0.48 0.22 94 1013.0
20260904010003 71 21 0.0 2.0 0.02 0.48 0.22 94 1013.0
20260904005503 72 16 1.0 2.0 0.03 0.48 0.22 94 1013.1
20260904005003 72 14 0.0 2.0 0.03 0.47 0.22 94 1013.2
20260904004716 72 19 0.0 3.0 0.04 0.47 0.21 94 1013.2
20260904004003 72 357 0.0 3.0 0.12 0.47 0.21 94 1013.0
20260904003503 73 246 0.0 1.0 0.15 0.46 0.20 94 1012.9
20260904003003 73 246 0.0 1.0 0.15 0.47 0.20 94 1012.5
20260904002503 73 246 0.0 1.0 0.15 0.47 0.20 94 1012.1
20260904002217 73 246 0.0 1.0 0.15 0.47 0.20 94 1012.2
20260904001716 73 233 0.0 2.0 0.15 0.48 0.20 94 1012.2
20260904001217 73 227 1.0 2.0 0.15 0.49 0.20 94 1012.5
20260904000506 73 224 1.0 2.0 0.15 0.50 0.20 94 1012.6
20260904000003 73 214 1.0 3.0 0.15 0.51 0.20 94 1012.7
20260903235503 73 208 1.0 3.0 0.14 0.51 0.19 94 1012.6
20260903235217 73 202 1.0 3.0 0.14 0.52 0.19 94 1012.7
20260903234503 74 197 1.0 3.0 0.11 0.50 0.16 94 1012.8
20260903234003 74 210 1.0 6.0 0.04 0.44 0.09 94 1012.9
20260903233503 73 183 1.0 6.0 0.00 0.41 0.05 93 1012.6
20260903233003 73 155 0.0 4.0 0.00 0.42 0.05 93 1012.7
20260903232718 73 157 0.0 4.0 0.00 0.43 0.05 93 1012.7
20260903232003 74 219 0.0 1.0 0.00 0.44 0.05 93 1012.7
20260903231718 74 219 0.0 1.0 0.00 0.45 0.05 93 1012.7
20260903231003 74 219 0.0 1.0 0.00 0.62 0.05 93 1012.4
20260903230503 74 0 0.0 0.0 0.00 0.68 0.05 93 1012.6
20260903230003 74 0 0.0 0.0 0.00 0.71 0.05 93 1012.5
20260903225503 74 0 0.0 0.0 0.00 0.72 0.05 93 1012.5
20260903225003 74 0 0.0 0.0 0.00 0.72 0.05 93 1012.5
20260903224503 74 0 0.0 0.0 0.00 0.72 0.05 93 1012.6
20260903224003 74 0 0.0 0.0 0.00 0.72 0.05 93 1012.6
20260903223503 74 0 0.0 0.0 0.00 0.72 0.05 93 1012.6
20260903223003 74 0 0.0 0.0 0.01 0.72 0.05 93 1012.7
20260903222718 74 0 0.0 0.0 0.01 0.72 0.05 93 1012.7
20260903222003 74 219 0.0 1.0 0.01 0.72 0.05 93 1012.6
20260903221503 74 219 0.0 1.0 0.01 0.72 0.05 93 1012.6
20260903221003 74 219 0.0 1.0 0.01 0.72 0.05 93 1012.3
20260903220503 74 0 0.0 0.0 0.01 0.72 0.05 93 1012.1
20260903220003 74 0 0.0 0.0 0.04 0.72 0.05 92 1012.0
20260903215717 75 0 0.0 0.0 0.04 0.72 0.05 92 1012.2
20260903215003 75 0 0.0 0.0 0.04 0.72 0.05 92 1012.2
20260903214503 75 0 0.0 0.0 0.04 0.72 0.05 92 1012.1
20260903214003 75 0 0.0 0.0 0.04 0.72 0.05 91 1012.2
20260903213503 75 0 0.0 0.0 0.04 0.72 0.05 91 1012.3
20260903213003 75 0 0.0 0.0 0.03 0.71 0.04 90 1012.3
20260903212503 76 0 0.0 0.0 0.03 0.71 0.04 90 1012.1
20260903212218 76 0 0.0 0.0 0.03 0.71 0.04 90 1012.1
20260903211503 76 219 0.0 1.0 0.03 0.71 0.04 89 1012.3
20260903211218 77 219 0.0 2.0 0.03 0.71 0.04 89 1012.3
20260903210717 77 209 0.0 2.0 0.03 0.71 0.04 88 1012.5
20260903210003 77 183 0.0 1.0 0.00 0.68 0.01 87 1012.4
20260903205503 78 175 0.0 1.0 0.00 0.68 0.01 88 1012.4
20260903205003 78 175 0.0 1.0 0.01 0.68 0.01 87 1012.6
20260903204717 78 175 0.0 1.0 0.01 0.68 0.01 87 1012.6
20260903204003 78 232 1.0 6.0 0.01 0.68 0.01 87 1012.5
20260903203503 78 222 1.0 6.0 0.01 0.68 0.01 85 1012.4
20260903203003 78 207 1.0 7.0 0.01 0.68 0.01 86 1012.6
20260903202503 78 220 1.0 7.0 0.01 0.68 0.01 87 1012.6
20260903202003 78 241 0.0 5.0 0.01 0.68 0.01 86 1012.7
20260903201503 78 213 0.0 4.0 0.01 0.68 0.01 87 1012.7
20260903201218 78 219 0.0 4.0 0.01 0.68 0.01 87 1012.7
20260903200503 79 218 0.0 3.0 0.01 0.68 0.01 86 1012.8
20260903200003 79 205 1.0 4.0 0.01 0.68 0.01 83 1013.0
20260903195717 80 196 1.0 4.0 0.01 0.68 0.01 84 1013.0
20260903195003 80 192 1.0 2.0 0.00 0.67 0.00 82 1012.9
20260903194503 81 208 1.0 4.0 0.00 0.67 0.00 83 1012.8
20260903194218 81 208 1.0 4.0 0.00 0.67 0.00 81 1012.7
20260903193503 81 224 1.0 2.0 0.00 0.67 0.00 82 1012.7
20260903193003 82 215 1.0 4.0 0.00 0.67 0.00 79 1012.7
20260903192717 82 205 1.0 4.0 0.00 0.67 0.00 81 1012.7
20260903192003 82 209 1.0 4.0 0.00 0.67 0.00 79 1012.7
20260903191503 82 197 1.0 6.0 0.00 0.67 0.00 82 1012.8
20260903191003 82 188 1.0 6.0 0.00 0.67 0.00 80 1012.9
20260903190503 82 200 1.0 6.0 0.00 0.67 0.00 80 1012.9
20260903190003 82 216 1.0 6.0 0.00 0.67 0.00 78 1013.0
20260903185503 82 222 2.0 6.0 0.00 0.67 0.00 81 1013.0
20260903185003 82 224 2.0 6.0 0.00 0.67 0.00 77 1012.9
20260903184503 82 226 1.0 5.0 0.00 0.67 0.00 77 1012.9
20260903184003 82 255 1.0 3.0 0.00 0.67 0.00 80 1013.1
20260903183503 82 287 1.0 3.0 0.00 0.67 0.00 82 1013.1
20260903183217 82 266 1.0 3.0 0.00 0.67 0.00 81 1013.1
20260903182503 82 230 1.0 7.0 0.00 0.67 0.00 80 1013.1
20260903182003 81 231 1.0 7.0 0.00 0.67 0.00 80 1013.2
20260903181503 81 180 1.0 3.0 0.00 0.67 0.00 83 1013.2
20260903181004 80 172 1.0 6.0 0.00 0.67 0.00 82 1013.2
20260903180503 80 210 2.0 9.0 0.00 0.67 0.00 82 1013.4
20260903180003 80 224 1.0 9.0 0.00 0.67 0.00 84 1013.5
20260903175503 80 215 1.0 5.0 0.00 0.67 0.00 86 1013.4
20260903175003 79 204 2.0 5.0 0.00 0.67 0.00 83 1013.4
20260903174503 79 202 2.0 6.0 0.00 0.67 0.00 85 1013.6
20260903174217 79 199 2.0 6.0 0.00 0.67 0.00 85 1013.6
20260903173503 79 215 1.0 4.0 0.00 0.67 0.00 84 1013.5
20260903173003 79 231 1.0 4.0 0.00 0.67 0.00 86 1013.5
20260903172503 79 212 1.0 4.0 0.00 0.67 0.00 85 1013.6
20260903172003 79 203 1.0 4.0 0.00 0.67 0.00 87 1013.6
20260903171503 78 228 1.0 4.0 0.00 0.67 0.00 86 1013.8
20260903171003 78 222 2.0 6.0 0.00 0.67 0.00 86 1013.7
20260903170503 78 214 2.0 6.0 0.00 0.67 0.00 87 1013.6
20260903170003 78 222 1.0 4.0 0.00 0.67 0.00 85 1013.7
20260903165503 78 219 1.0 4.0 0.00 0.67 0.00 85 1013.7
20260903165003 78 217 1.0 5.0 0.00 0.67 0.00 86 1013.5
20260903164503 78 199 2.0 5.0 0.00 0.67 0.00 85 1013.5
20260903164003 77 189 2.0 6.0 0.00 0.67 0.00 87 1013.6
20260903163503 77 220 2.0 10.0 0.00 0.67 0.00 86 1013.6
20260903163003 77 223 2.0 10.0 0.00 0.67 0.00 86 1013.8
20260903162503 77 226 2.0 5.0 0.00 0.67 0.00 86 1013.7
20260903162003 77 221 1.0 4.0 0.00 0.67 0.00 86 1013.8
20260903161717 77 212 1.0 3.0 0.00 0.67 0.00 86 1013.7
20260903161217 77 202 1.0 7.0 0.00 0.67 0.00 88 1013.7
20260903160503 77 201 1.0 6.0 0.00 0.67 0.00 87 1013.7
20260903160003 77 187 1.0 6.0 0.00 0.67 0.00 86 1013.7
20260903155503 77 190 1.0 6.0 0.00 0.67 0.00 88 1013.8
20260903155003 76 197 1.0 6.0 0.00 0.67 0.00 88 1013.9
20260903154503 76 239 1.0 3.0 0.00 0.67 0.00 87 1014.0
20260903154003 76 245 1.0 3.0 0.00 0.67 0.00 89 1014.0
20260903153503 76 178 1.0 4.0 0.00 0.67 0.00 90 1014.1
20260903153003 75 151 1.0 6.0 0.00 0.67 0.00 91 1013.9
20260903152503 75 164 1.0 6.0 0.00 0.67 0.00 90 1014.0
20260903152218 75 181 1.0 5.0 0.00 0.67 0.00 91 1014.0
20260903151503 75 213 1.0 5.0 0.00 0.67 0.00 92 1014.0
20260903151003 74 223 0.0 2.0 0.00 0.67 0.00 92 1014.1
20260903150508 74 214 1.0 2.0 0.00 0.67 0.00 93 1014.1
20260903150218 74 208 1.0 3.0 0.00 0.67 0.00 93 1014.1